| time (UTC) | temp F | wind direction | speed MPH | gust MPH | rain 1hr in | rain 24hr in | rain mn in | humidity % | barometer mb |
| 20260505064033 | 60 | 131 | 0.0 | 0.0 | 0.00 | 0.00 | 0.00 | 82 | 1011.8 |
| 20260505063530 | 60 | 80 | 0.0 | 0.0 | 0.00 | 0.00 | 0.00 | 81 | 1011.8 |
| 20260505063026 | 60 | 69 | 0.0 | 1.0 | 0.00 | 0.00 | 0.00 | 81 | 1011.8 |
| 20260505062523 | 60 | 127 | 0.0 | 1.0 | 0.00 | 0.00 | 0.00 | 80 | 1011.7 |
| 20260505062020 | 60 | 110 | 0.0 | 0.0 | 0.00 | 0.00 | 0.00 | 81 | 1011.7 |
| 20260505061518 | 60 | 238 | 0.0 | 0.0 | 0.00 | 0.00 | 0.00 | 80 | 1011.6 |
| 20260505061015 | 60 | 121 | 0.0 | 2.0 | 0.00 | 0.00 | 0.00 | 80 | 1011.7 |
| 20260505060512 | 61 | 197 | 0.0 | 0.0 | 0.00 | 0.00 | 0.00 | 80 | 1011.9 |
| 20260505060009 | 61 | 145 | 0.0 | 3.0 | 0.00 | 0.00 | 0.00 | 79 | 1011.8 |
| 20260505055504 | 62 | 146 | 0.0 | 0.0 | 0.00 | 0.00 | 0.00 | 77 | 1011.9 |
| 20260505055001 | 62 | 322 | 1.0 | 2.0 | 0.00 | 0.00 | 0.00 | 77 | 1011.8 |
| 20260505054459 | 62 | 156 | 0.0 | 2.0 | 0.00 | 0.00 | 0.00 | 76 | 1011.8 |
| 20260505053956 | 62 | 223 | 0.0 | 4.0 | 0.00 | 0.00 | 0.00 | 75 | 1011.8 |
| 20260505053453 | 62 | 223 | 2.0 | 3.0 | 0.00 | 0.00 | 0.00 | 75 | 1011.9 |
| 20260505052950 | 62 | 201 | 1.0 | 4.0 | 0.00 | 0.00 | 0.00 | 75 | 1011.8 |
| 20260505052447 | 63 | 218 | 1.0 | 2.0 | 0.00 | 0.00 | 0.00 | 74 | 1011.7 |
| 20260505051944 | 63 | 122 | 0.0 | 2.0 | 0.00 | 0.00 | 0.00 | 74 | 1011.8 |
| 20260505051441 | 63 | 279 | 0.0 | 2.0 | 0.00 | 0.00 | 0.00 | 74 | 1012.0 |
| 20260505050939 | 63 | 294 | 0.0 | 7.0 | 0.00 | 0.00 | 0.00 | 74 | 1011.9 |
| 20260505050437 | 62 | 186 | 2.0 | 6.0 | 0.00 | 0.00 | 0.00 | 74 | 1011.9 |
| 20260505041405 | 62 | 155 | 2.0 | 6.0 | 0.00 | 0.00 | 0.00 | 74 | 1011.9 |
| 20260505040901 | 62 | 193 | 2.0 | 7.0 | 0.00 | 0.00 | 0.00 | 73 | 1012.0 |
| 20260505040359 | 62 | 230 | 2.0 | 4.0 | 0.00 | 0.00 | 0.00 | 74 | 1012.0 |
| 20260505035856 | 62 | 196 | 2.0 | 6.0 | 0.00 | 0.00 | 0.00 | 73 | 1012.1 |
| 20260505035351 | 62 | 169 | 2.0 | 6.0 | 0.00 | 0.00 | 0.00 | 74 | 1011.9 |
| 20260505034850 | 62 | 125 | 2.0 | 3.0 | 0.00 | 0.00 | 0.00 | 74 | 1011.9 |
| 20260505034346 | 62 | 162 | 1.0 | 1.0 | 0.00 | 0.00 | 0.00 | 75 | 1012.0 |
| 20260505033843 | 63 | 120 | 1.0 | 3.0 | 0.00 | 0.00 | 0.00 | 73 | 1011.9 |
| 20260505033340 | 63 | 159 | 1.0 | 7.0 | 0.00 | 0.00 | 0.00 | 73 | 1012.0 |
| 20260505032838 | 63 | 139 | 2.0 | 6.0 | 0.00 | 0.00 | 0.00 | 74 | 1011.9 |
| 20260505032334 | 63 | 119 | 0.0 | 4.0 | 0.00 | 0.00 | 0.00 | 74 | 1011.9 |
| 20260505031831 | 63 | 160 | 1.0 | 1.0 | 0.00 | 0.00 | 0.00 | 73 | 1011.8 |
| 20260505031328 | 63 | 149 | 3.0 | 4.0 | 0.00 | 0.00 | 0.00 | 72 | 1011.9 |
| 20260505030825 | 63 | 177 | 2.0 | 6.0 | 0.00 | 0.00 | 0.00 | 72 | 1012.0 |
| 20260505030321 | 63 | 134 | 2.0 | 7.0 | 0.00 | 0.00 | 0.00 | 72 | 1011.9 |
| 20260505025817 | 63 | 157 | 2.0 | 8.0 | 0.00 | 0.00 | 0.00 | 71 | 1012.0 |
| 20260505025314 | 62 | 175 | 1.0 | 3.0 | 0.00 | 0.00 | 0.00 | 71 | 1012.0 |
| 20260505024813 | 62 | 159 | 2.0 | 4.0 | 0.00 | 0.00 | 0.00 | 70 | 1012.2 |
| 20260505024309 | 62 | 137 | 0.0 | 6.0 | 0.00 | 0.00 | 0.00 | 70 | 1012.1 |
| 20260505023807 | 62 | 132 | 0.0 | 3.0 | 0.00 | 0.00 | 0.00 | 69 | 1012.2 |
| 20260505023303 | 63 | 177 | 2.0 | 4.0 | 0.00 | 0.00 | 0.00 | 68 | 1012.2 |
| 20260505022801 | 62 | 118 | 1.0 | 2.0 | 0.00 | 0.00 | 0.00 | 68 | 1012.2 |
| 20260505022258 | 63 | 149 | 2.0 | 2.0 | 0.00 | 0.00 | 0.00 | 67 | 1012.0 |
| 20260505021755 | 63 | 186 | 2.0 | 2.0 | 0.00 | 0.00 | 0.00 | 66 | 1012.2 |
| 20260505021252 | 63 | 168 | 2.0 | 3.0 | 0.00 | 0.00 | 0.00 | 65 | 1012.1 |
| 20260505020748 | 63 | 205 | 2.0 | 3.0 | 0.00 | 0.00 | 0.00 | 64 | 1012.1 |
| 20260505020242 | 63 | 189 | 3.0 | 3.0 | 0.00 | 0.00 | 0.00 | 63 | 1012.3 |
| 20260505015740 | 63 | 214 | 2.0 | 4.0 | 0.00 | 0.00 | 0.00 | 63 | 1012.0 |
| 20260505015237 | 63 | 87 | 1.0 | 2.0 | 0.00 | 0.00 | 0.00 | 62 | 1012.0 |
| 20260505014734 | 63 | 182 | 1.0 | 4.0 | 0.00 | 0.00 | 0.00 | 61 | 1012.0 |
| 20260505014231 | 63 | 118 | 2.0 | 2.0 | 0.00 | 0.00 | 0.00 | 62 | 1012.1 |
| 20260505013728 | 63 | 152 | 1.0 | 3.0 | 0.00 | 0.00 | 0.00 | 61 | 1012.1 |
| 20260505013225 | 64 | 130 | 1.0 | 1.0 | 0.00 | 0.00 | 0.00 | 61 | 1012.1 |
| 20260505012723 | 64 | 181 | 2.0 | 2.0 | 0.00 | 0.00 | 0.00 | 61 | 1011.9 |
| 20260505012220 | 64 | 164 | 1.0 | 2.0 | 0.00 | 0.00 | 0.00 | 61 | 1011.9 |
| 20260505011716 | 64 | 113 | 0.0 | 0.0 | 0.00 | 0.00 | 0.00 | 60 | 1011.9 |
| 20260505011214 | 64 | 171 | 0.0 | 0.0 | 0.00 | 0.00 | 0.00 | 60 | 1012.0 |
| 20260505010709 | 64 | 142 | 0.0 | 2.0 | 0.00 | 0.00 | 0.00 | 58 | 1012.0 |
| 20260505010206 | 65 | 169 | 0.0 | 2.0 | 0.00 | 0.00 | 0.00 | 58 | 1011.9 |
| 20260505005701 | 65 | 152 | 0.0 | 1.0 | 0.00 | 0.00 | 0.00 | 58 | 1011.6 |
| 20260505005159 | 65 | 195 | 2.0 | 2.0 | 0.00 | 0.00 | 0.00 | 56 | 1011.8 |
| 20260505004656 | 65 | 163 | 0.0 | 1.0 | 0.00 | 0.00 | 0.00 | 57 | 1011.6 |
| 20260505004153 | 65 | 174 | 2.0 | 4.0 | 0.00 | 0.00 | 0.00 | 56 | 1011.4 |
| 20260505003650 | 65 | 107 | 1.0 | 1.0 | 0.00 | 0.00 | 0.00 | 56 | 1011.6 |
| 20260505003147 | 66 | 141 | 0.0 | 1.0 | 0.00 | 0.00 | 0.00 | 56 | 1011.6 |
| 20260505002643 | 66 | 157 | 2.0 | 2.0 | 0.00 | 0.00 | 0.00 | 55 | 1011.6 |
| 20260505002141 | 66 | 128 | 0.0 | 1.0 | 0.00 | 0.00 | 0.00 | 56 | 1011.4 |
| 20260505001638 | 67 | 117 | 0.0 | 1.0 | 0.00 | 0.00 | 0.00 | 54 | 1011.2 |
| 20260505001136 | 67 | 161 | 0.0 | 1.0 | 0.00 | 0.00 | 0.00 | 53 | 1011.2 |
| 20260505000633 | 68 | 165 | 2.0 | 2.0 | 0.00 | 0.00 | 0.00 | 52 | 1011.2 |
| 20260505000131 | 68 | 160 | 1.0 | 3.0 | 0.00 | 0.00 | 0.00 | 52 | 1011.3 |
| 20260504235627 | 69 | 137 | 1.0 | 2.0 | 0.00 | 0.00 | 0.00 | 52 | 1011.2 |
| 20260504235123 | 69 | 170 | 1.0 | 6.0 | 0.00 | 0.00 | 0.00 | 52 | 1011.1 |
| 20260504234621 | 69 | 153 | 1.0 | 2.0 | 0.00 | 0.00 | 0.00 | 52 | 1011.1 |
| 20260504234118 | 69 | 208 | 0.0 | 1.0 | 0.00 | 0.00 | 0.00 | 51 | 1011.1 |
| 20260504233614 | 69 | 268 | 0.0 | 3.0 | 0.00 | 0.00 | 0.00 | 50 | 1011.1 |
| 20260504233110 | 70 | 161 | 1.0 | 3.0 | 0.00 | 0.00 | 0.00 | 49 | 1011.1 |
| 20260504232608 | 70 | 149 | 4.0 | 6.0 | 0.00 | 0.00 | 0.00 | 49 | 1011.0 |
| 20260504232105 | 70 | 195 | 2.0 | 8.0 | 0.00 | 0.00 | 0.00 | 48 | 1011.1 |
| 20260504231601 | 71 | 206 | 1.0 | 6.0 | 0.00 | 0.00 | 0.00 | 47 | 1011.0 |
| 20260504231057 | 71 | 170 | 2.0 | 4.0 | 0.00 | 0.00 | 0.00 | 47 | 1011.1 |
| 20260504230553 | 71 | 189 | 1.0 | 3.0 | 0.00 | 0.00 | 0.00 | 47 | 1011.2 |
| 20260504230052 | 71 | 191 | 1.0 | 4.0 | 0.00 | 0.00 | 0.00 | 47 | 1011.1 |
| 20260504225549 | 71 | 262 | 2.0 | 6.0 | 0.00 | 0.00 | 0.00 | 47 | 1010.9 |
| 20260504225046 | 71 | 219 | 2.0 | 3.0 | 0.00 | 0.00 | 0.00 | 45 | 1011.2 |
| 20260504224542 | 71 | 152 | 3.0 | 7.0 | 0.00 | 0.00 | 0.00 | 46 | 1010.9 |
| 20260504224040 | 71 | 168 | 1.0 | 4.0 | 0.00 | 0.00 | 0.00 | 45 | 1011.1 |
| 20260504223537 | 71 | 66 | 0.0 | 3.0 | 0.00 | 0.00 | 0.00 | 45 | 1011.1 |
| 20260504223032 | 71 | 133 | 4.0 | 9.0 | 0.00 | 0.00 | 0.00 | 45 | 1010.9 |
| 20260504222529 | 72 | 170 | 1.0 | 6.0 | 0.00 | 0.00 | 0.00 | 45 | 1011.0 |
| 20260504222027 | 72 | 177 | 4.0 | 7.0 | 0.00 | 0.00 | 0.00 | 45 | 1010.9 |
| 20260504221524 | 72 | 207 | 2.0 | 8.0 | 0.00 | 0.00 | 0.00 | 45 | 1011.1 |
| 20260504221021 | 72 | 203 | 2.0 | 8.0 | 0.00 | 0.00 | 0.00 | 44 | 1011.2 |
| 20260504220517 | 72 | 270 | 2.0 | 4.0 | 0.00 | 0.00 | 0.00 | 45 | 1011.1 |
| 20260504220014 | 73 | 199 | 5.0 | 7.0 | 0.00 | 0.00 | 0.00 | 44 | 1011.1 |
| 20260504215510 | 73 | 345 | 2.0 | 3.0 | 0.00 | 0.00 | 0.00 | 45 | 1011.1 |
| 20260504215008 | 73 | 131 | 2.0 | 3.0 | 0.00 | 0.00 | 0.00 | 44 | 1011.1 |
| 20260504214504 | 73 | 243 | 3.0 | 4.0 | 0.00 | 0.00 | 0.00 | 44 | 1011.2 |
| 20260504214000 | 73 | 220 | 0.0 | 4.0 | 0.00 | 0.00 | 0.00 | 45 | 1011.3 |
| 20260504213456 | 72 | 208 | 1.0 | 7.0 | 0.00 | 0.00 | 0.00 | 44 | 1011.3 |
| 20260504212954 | 73 | 169 | 4.0 | 6.0 | 0.00 | 0.00 | 0.00 | 43 | 1011.2 |
| 20260504212450 | 73 | 90 | 1.0 | 4.0 | 0.00 | 0.00 | 0.00 | 44 | 1011.1 |
| 20260504211948 | 73 | 215 | 4.0 | 8.0 | 0.00 | 0.00 | 0.00 | 44 | 1011.2 |
| 20260504211444 | 73 | 309 | 1.0 | 4.0 | 0.00 | 0.00 | 0.00 | 44 | 1011.2 |
| 20260504210942 | 73 | 171 | 2.0 | 9.0 | 0.00 | 0.00 | 0.00 | 44 | 1011.1 |
| 20260504210438 | 73 | 216 | 3.0 | 4.0 | 0.00 | 0.00 | 0.00 | 43 | 1011.1 |
| 20260504205935 | 73 | 183 | 5.0 | 7.0 | 0.00 | 0.00 | 0.00 | 43 | 1011.2 |
| 20260504205433 | 73 | 102 | 4.0 | 8.0 | 0.00 | 0.00 | 0.00 | 43 | 1011.4 |
| 20260504204931 | 73 | 194 | 2.0 | 7.0 | 0.00 | 0.00 | 0.00 | 43 | 1011.2 |
| 20260504204429 | 73 | 306 | 1.0 | 4.0 | 0.00 | 0.00 | 0.00 | 44 | 1011.1 |
| 20260504203928 | 73 | 167 | 2.0 | 9.0 | 0.00 | 0.00 | 0.00 | 43 | 1011.4 |
| 20260504203425 | 73 | 295 | 5.0 | 10.0 | 0.00 | 0.00 | 0.00 | 42 | 1011.2 |
| 20260504202920 | 73 | 53 | 2.0 | 6.0 | 0.00 | 0.00 | 0.00 | 42 | 1011.2 |
| 20260504202417 | 73 | 167 | 2.0 | 10.0 | 0.00 | 0.00 | 0.00 | 42 | 1011.1 |
| 20260504201914 | 73 | 22 | 1.0 | 7.0 | 0.00 | 0.00 | 0.00 | 42 | 1011.2 |
| 20260504201412 | 74 | 5 | 4.0 | 8.0 | 0.00 | 0.00 | 0.00 | 41 | 1011.1 |
| 20260504200909 | 73 | 153 | 6.0 | 8.0 | 0.00 | 0.00 | 0.00 | 41 | 1011.2 |
| 20260504200406 | 74 | 109 | 4.0 | 8.0 | 0.00 | 0.00 | 0.00 | 42 | 1011.2 |
| 20260504195902 | 74 | 328 | 0.0 | 7.0 | 0.00 | 0.00 | 0.00 | 42 | 1011.2 |
| 20260504195358 | 75 | 162 | 1.0 | 3.0 | 0.00 | 0.00 | 0.00 | 42 | 1011.2 |
| 20260504194855 | 74 | 241 | 2.0 | 4.0 | 0.00 | 0.00 | 0.00 | 42 | 1011.4 |
| 20260504194350 | 74 | 139 | 2.0 | 7.0 | 0.00 | 0.00 | 0.00 | 42 | 1011.6 |
| 20260504193847 | 74 | 45 | 4.0 | 10.0 | 0.00 | 0.00 | 0.00 | 41 | 1011.5 |
| 20260504193344 | 74 | 175 | 2.0 | 9.0 | 0.00 | 0.00 | 0.00 | 41 | 1011.7 |
| 20260504192843 | 73 | 170 | 1.0 | 3.0 | 0.00 | 0.00 | 0.00 | 43 | 1011.6 |
| 20260504192340 | 74 | 198 | 5.0 | 7.0 | 0.00 | 0.00 | 0.00 | 41 | 1011.8 |
| 20260504191838 | 73 | 228 | 4.0 | 4.0 | 0.00 | 0.00 | 0.00 | 42 | 1011.8 |
| 20260504191336 | 73 | 193 | 6.0 | 10.0 | 0.00 | 0.00 | 0.00 | 41 | 1011.9 |
| 20260504190831 | 74 | 105 | 0.0 | 2.0 | 0.00 | 0.00 | 0.00 | 42 | 1012.0 |
| 20260504190327 | 73 | 210 | 4.0 | 7.0 | 0.00 | 0.00 | 0.00 | 43 | 1012.1 |
| 20260504185824 | 72 | 200 | 6.0 | 10.0 | 0.00 | 0.00 | 0.00 | 42 | 1012.0 |
| 20260504185321 | 72 | 245 | 4.0 | 8.0 | 0.00 | 0.00 | 0.00 | 44 | 1012.4 |
| 20260504184817 | 72 | 113 | 5.0 | 11.0 | 0.00 | 0.00 | 0.00 | 43 | 1012.3 |
| 20260504184313 | 73 | 172 | 5.0 | 8.0 | 0.00 | 0.00 | 0.00 | 42 | 1012.5 |
| 20260504183809 | 73 | 304 | 2.0 | 4.0 | 0.00 | 0.00 | 0.00 | 43 | 1012.5 |
| 20260504183306 | 73 | 252 | 1.0 | 7.0 | 0.00 | 0.00 | 0.00 | 42 | 1012.6 |
| 20260504182804 | 72 | 149 | 1.0 | 6.0 | 0.00 | 0.00 | 0.00 | 43 | 1012.8 |
| 20260504182301 | 72 | 258 | 8.0 | 11.0 | 0.00 | 0.00 | 0.00 | 42 | 1012.7 |
| 20260504181759 | 71 | 222 | 3.0 | 8.0 | 0.00 | 0.00 | 0.00 | 43 | 1012.8 |
| 20260504181255 | 72 | 289 | 3.0 | 18.0 | 0.00 | 0.00 | 0.00 | 42 | 1012.9 |
| 20260504180755 | 72 | 193 | 3.0 | 11.0 | 0.00 | 0.00 | 0.00 | 42 | 1012.9 |
| 20260504180253 | 70 | 212 | 3.0 | 9.0 | 0.00 | 0.00 | 0.00 | 43 | 1013.1 |
| 20260504175750 | 71 | 201 | 6.0 | 14.0 | 0.00 | 0.00 | 0.00 | 43 | 1013.0 |
| 20260504175247 | 72 | 163 | 6.0 | 11.0 | 0.00 | 0.00 | 0.00 | 41 | 1013.3 |
| 20260504174745 | 72 | 182 | 10.0 | 10.0 | 0.00 | 0.00 | 0.00 | 41 | 1013.1 |
| 20260504174243 | 71 | 270 | 3.0 | 7.0 | 0.00 | 0.00 | 0.00 | 44 | 1013.3 |
| 20260504173739 | 71 | 13 | 0.0 | 4.0 | 0.00 | 0.00 | 0.00 | 44 | 1013.4 |
| 20260504173236 | 71 | 197 | 2.0 | 6.0 | 0.00 | 0.00 | 0.00 | 42 | 1013.6 |
| 20260504172733 | 71 | 207 | 6.0 | 8.0 | 0.00 | 0.00 | 0.00 | 42 | 1013.4 |
| 20260504172229 | 70 | 140 | 3.0 | 10.0 | 0.00 | 0.00 | 0.00 | 43 | 1013.5 |
| 20260504171725 | 71 | 20 | 3.0 | 4.0 | 0.00 | 0.00 | 0.00 | 42 | 1013.7 |
| 20260504171223 | 71 | 187 | 4.0 | 10.0 | 0.00 | 0.00 | 0.00 | 43 | 1013.7 |
| 20260504170719 | 71 | 192 | 4.0 | 8.0 | 0.00 | 0.00 | 0.00 | 44 | 1013.7 |
| 20260504170217 | 70 | 225 | 4.0 | 7.0 | 0.00 | 0.00 | 0.00 | 43 | 1013.8 |
| 20260504160135 | 70 | 11 | 0.0 | 8.0 | 0.00 | 0.00 | 0.00 | 45 | 1014.8 |
| 20260504151102 | 68 | 152 | 2.0 | 9.0 | 0.00 | 0.00 | 0.00 | 49 | 1015.0 |
| 20260504150600 | 67 | 175 | 2.0 | 3.0 | 0.00 | 0.00 | 0.00 | 51 | 1014.8 |
| 20260504141026 | 65 | 288 | 2.0 | 2.0 | 0.00 | 0.00 | 0.00 | 59 | 1015.3 |
| 20260504140522 | 65 | 238 | 2.0 | 6.0 | 0.00 | 0.00 | 0.00 | 61 | 1015.3 |
| 20260504130447 | 60 | 229 | 2.0 | 6.0 | 0.00 | 0.00 | 0.00 | 69 | 1015.9 |
| 20260504110334 | 48 | 146 | 1.0 | 1.0 | 0.00 | 0.00 | 0.00 | 91 | 1016.6 |
| 20260504100251 | 46 | 242 | 0.0 | 0.0 | 0.00 | 0.00 | 0.00 | 90 | 1016.6 |
| 20260504081645 | 42 | 82 | 0.0 | 0.0 | 0.00 | 0.00 | 0.00 | 90 | 1016.4 |
| 20260504081141 | 42 | 128 | 0.0 | 0.0 | 0.00 | 0.00 | 0.00 | 90 | 1016.1 |
| 20260504080637 | 41 | 348 | 0.0 | 0.0 | 0.00 | 0.00 | 0.00 | 93 | 1016.3 |
| 20260504080134 | 41 | 314 | 0.0 | 0.0 | 0.00 | 0.00 | 0.00 | 93 | 1016.4 |